DateTimeUTC,F1_A11,F1_S11,BsB_S11,BsG_S11,BsR_S11,BbsB_S11,BbsG_S11,BbsR_S11,BaB_A11,BaG_A11,BaR_A11,Tu_S11,T_S11,Uu_S11,U_S11,P_S11,T1_A11
2021-05-07T06:00:00Z,00000200,21000000,,,,,,,-000.07,-000.02,0000.23,17.5,24.5,00.9,00.6,0673.0,31.0
2021-05-07T06:01:00Z,00000200,21000000,,,,,,,-000.24,0000.03,-000.22,17.4,24.5,00.7,00.5,0673.0,31.0
2021-05-07T06:02:00Z,00000200,21000000,,,,,,,0000.14,0000.18,0000.22,17.4,24.5,00.6,00.4,0673.0,31.0
2021-05-07T06:03:00Z,00000200,61000000,,,,,,,0000.79,0000.49,0000.34,17.4,24.5,00.6,00.4,0673.0,31.0
2021-05-07T06:04:00Z,00000200,41000000,0001.41,0000.80,0000.38,0000.47,0000.08,0000.15,0000.81,0000.25,0000.32,17.5,24.2,00.9,00.6,0673.9,31.0
2021-05-07T06:05:00Z,00000200,01000000,0002.53,0001.05,0000.57,0000.34,0000.17,0000.49,0004.08,0004.13,0002.79,17.5,24.1,01.1,00.7,0673.9,31.0
2021-05-07T06:06:00Z,00000200,01000000,0008.43,0005.49,0003.32,0001.39,0001.17,0001.02,0098.30,0089.46,0070.32,17.4,24.1,01.1,00.7,0673.9,30.9
2021-05-07T06:07:00Z,00000200,01000000,0003.56,0001.97,0001.37,0000.67,0000.56,0000.34,0035.98,0033.85,0026.65,17.4,24.1,01.1,00.7,0674.0,30.9
2021-05-07T06:08:00Z,00000200,01000000,0001.95,0000.48,0000.25,0000.50,0000.43,-000.04,0003.13,0002.31,0002.39,17.3,24.0,01.1,00.7,0673.9,30.9
2021-05-07T06:09:00Z,00000200,01000000,0001.92,0000.78,0000.50,0000.03,0000.16,0000.05,0002.46,0002.74,0001.82,17.3,24.0,01.1,00.7,0674.0,30.9
2021-05-07T06:10:00Z,00000200,01000000,0001.10,0000.82,0000.38,0000.42,0000.18,0000.20,0001.06,0000.55,0000.30,17.4,24.0,01.0,00.7,0674.0,30.9
2021-05-07T06:11:00Z,00000200,01000000,0001.54,0000.72,0000.58,0000.01,0000.14,0000.04,0000.51,0000.62,0000.59,17.4,24.0,01.1,00.7,0674.0,31.0
2021-05-07T06:12:00Z,00000200,01000000,0001.42,0000.98,0000.67,0000.29,0000.14,0000.15,0000.77,0000.92,0000.44,17.5,24.1,01.2,00.8,0674.0,31.0
2021-05-07T06:13:00Z,00000200,01000000,0001.21,0000.53,0000.71,-000.33,0000.01,0000.24,0000.74,0000.38,0000.61,17.5,24.1,01.2,00.8,0674.0,31.0
2021-05-07T06:14:00Z,00000200,01000000,0001.27,0000.63,0000.24,-000.20,0000.15,-000.00,0000.47,0000.71,0000.70,17.6,24.1,01.1,00.7,0674.0,31.0
2021-05-07T06:15:00Z,00000200,01000000,0001.07,0000.54,0000.71,0000.11,0000.12,0000.31,0000.55,0000.26,0000.05,17.7,24.1,01.2,00.8,0674.0,31.0
2021-05-07T06:16:00Z,00000200,01000000,0001.33,0000.75,0000.37,0000.36,0000.01,0000.09,0000.40,0000.57,0000.39,17.8,24.2,01.1,00.7,0674.0,31.0
2021-05-07T06:17:00Z,00000200,01000000,0001.01,0000.96,0000.52,0000.58,0000.06,0000.32,0000.76,0000.69,0000.26,17.8,24.2,01.1,00.7,0674.0,31.0
2021-05-07T06:18:00Z,00000200,01000000,0001.64,0000.84,0000.37,0000.53,0000.09,0000.20,0000.82,0000.59,0000.51,17.9,24.3,01.1,00.8,0674.0,31.0
2021-05-07T06:19:00Z,00000200,01000000,0000.82,0000.66,0000.47,0000.06,0000.26,0000.31,0000.13,0000.56,0000.44,17.9,24.3,01.1,00.8,0674.1,31.0
2021-05-07T06:20:00Z,00000200,01000000,0000.45,0000.86,0000.59,0000.29,0000.04,-000.01,0000.88,0000.32,0000.12,17.9,24.3,01.1,00.8,0674.1,31.0
2021-05-07T06:21:00Z,00000200,01000000,0001.18,0000.42,0000.48,0000.40,-000.17,0000.34,0000.06,0000.26,0000.40,17.9,24.3,01.1,00.7,0674.1,31.0
2021-05-07T06:22:00Z,00000200,01000000,0001.18,0000.75,0000.73,0000.03,0000.24,0000.14,0000.66,0000.58,0000.21,17.9,24.3,01.1,00.7,0674.0,31.0
2021-05-07T06:23:00Z,00000200,01000000,0001.20,0000.59,0000.53,-000.23,0000.09,0000.12,0000.34,0000.47,0000.37,17.8,24.2,01.1,00.8,0674.0,31.0
2021-05-07T06:24:00Z,00000200,01000000,0001.30,0000.71,0000.55,0000.37,0000.34,0000.32,0008.67,0007.86,0006.12,17.8,24.2,01.2,00.8,0674.0,31.0
2021-05-07T06:25:00Z,00000200,01000000,0002.55,0002.44,0001.84,0000.28,0000.59,0000.61,0043.56,0039.69,0031.34,17.8,24.3,01.3,00.9,0673.9,31.0
2021-05-07T06:26:00Z,00000200,01000000,0001.88,0001.47,0001.11,0000.41,0000.43,0000.38,0021.30,0019.56,0015.12,17.9,24.3,01.2,00.8,0673.9,31.0
2021-05-07T06:27:00Z,00000200,01000000,0002.05,0001.52,0000.97,0000.38,0000.41,0000.23,0022.46,0020.49,0015.95,18.0,24.3,01.3,00.9,0674.0,31.0
2021-05-07T06:28:00Z,00000200,01000000,0002.44,0001.15,0001.26,0000.79,0000.37,0000.49,0021.37,0019.69,0015.67,18.0,24.4,01.2,00.8,0673.9,31.0
2021-05-07T06:29:00Z,00000200,01000000,0001.14,0001.37,0000.85,-000.17,0000.28,0000.29,0016.69,0015.48,0012.39,18.0,24.4,01.3,00.9,0673.9,31.0
2021-05-07T06:30:00Z,00000200,01000000,0000.65,0000.20,0000.49,0000.33,-000.10,0000.16,0000.80,0000.68,0000.26,18.0,24.4,01.2,00.8,0673.9,31.0
2021-05-07T06:31:00Z,00000200,01000000,0001.23,0000.16,0000.28,-000.33,0000.27,0000.09,0000.34,0000.04,0000.13,17.9,24.3,01.3,00.9,0674.0,31.0
2021-05-07T06:32:00Z,00000200,01000000,0000.59,0000.56,0000.18,0000.23,0000.08,0000.30,0000.74,0000.87,0000.59,17.9,24.3,01.2,00.8,0674.0,31.0
2021-05-07T06:33:00Z,00000200,01000000,0000.23,0000.46,0000.26,0000.08,0000.28,0000.12,0000.17,0000.24,0000.21,17.8,24.3,01.2,00.8,0674.0,31.0
2021-05-07T06:34:00Z,00000200,01000000,0001.09,0000.74,0000.64,0000.40,0000.45,-000.12,0007.09,0006.13,0004.87,17.8,24.3,01.3,00.9,0674.0,31.0
2021-05-07T06:35:00Z,00000200,01000000,0001.82,0000.70,0000.38,-000.17,0000.31,-000.10,0008.36,0007.83,0005.92,17.7,24.2,01.2,00.8,0673.9,31.0
2021-05-07T06:36:00Z,00000200,01000000,0000.29,0000.34,0000.37,0000.30,-000.07,0000.10,0000.64,0000.40,0000.19,17.7,24.2,01.3,00.9,0673.9,31.0
2021-05-07T06:37:00Z,00000200,01000000,0001.45,0000.39,0000.58,0000.14,0000.28,0000.04,0004.99,0004.61,0003.81,17.6,24.2,01.2,00.8,0673.9,31.0
2021-05-07T06:38:00Z,00000200,01000000,0002.66,0001.79,0001.05,0000.52,0000.29,0000.14,0030.53,0027.82,0021.81,17.6,24.1,01.4,00.9,0673.9,31.0
2021-05-07T06:39:00Z,00000200,01000000,0003.09,0002.15,0001.44,0000.76,0000.28,0000.31,0039.19,0035.66,0027.91,17.6,24.1,01.2,00.8,0673.9,30.9
2021-05-07T06:40:00Z,00000200,01000000,0002.12,0001.30,0001.13,-000.05,0000.30,0000.11,0021.53,0020.36,0016.21,17.7,24.1,01.2,00.8,0673.9,31.0
2021-05-07T06:41:00Z,00000200,01000000,0000.84,-000.00,0000.18,-000.12,0000.37,-000.00,0001.77,0001.61,0001.11,17.6,24.2,01.2,00.8,0673.9,31.0
2021-05-07T06:42:00Z,00000200,01000000,0001.01,0000.69,0000.83,0000.06,0000.22,0000.15,0012.82,0011.33,0008.84,17.6,24.1,01.3,00.9,0673.9,31.0
2021-05-07T06:43:00Z,00000200,01000000,0000.29,0000.63,0000.51,0000.02,0000.23,0000.02,0000.79,0001.12,0001.24,17.6,24.1,01.3,00.9,0673.9,31.0
2021-05-07T06:44:00Z,00000200,01000000,0000.61,0000.33,0000.36,0000.12,-000.12,0000.00,0002.56,0002.15,0001.43,17.6,24.1,01.3,00.9,0673.8,31.0
2021-05-07T06:45:00Z,00000200,01000000,0003.52,0002.57,0001.81,0000.91,0000.85,0000.36,0041.11,0037.30,0029.47,17.5,24.1,01.3,00.8,0673.8,30.9
2021-05-07T06:46:00Z,00000200,01000000,0003.12,0002.61,0001.79,0000.67,0000.85,0000.34,0047.51,0044.25,0034.54,17.5,24.0,01.3,00.9,0673.8,30.9
2021-05-07T06:47:00Z,00000200,01000000,0004.78,0002.77,0001.66,0000.85,0000.61,0000.59,0057.77,0052.74,0041.81,17.4,24.0,01.3,00.9,0673.8,30.9
2021-05-07T06:48:00Z,00000200,01000000,0004.56,0003.46,0002.37,0001.07,0000.84,0000.79,0059.17,0054.29,0042.50,17.4,24.0,01.4,00.9,0673.8,30.9
2021-05-07T06:49:00Z,00000200,01000000,0001.29,0000.42,0000.46,0000.10,0000.15,-000.26,0013.08,0012.13,0009.55,17.4,24.0,01.3,00.9,0673.8,30.9
2021-05-07T06:50:00Z,00000200,01000000,0000.63,0000.49,0000.29,-000.19,0000.05,-000.03,0000.82,0000.63,0000.84,17.3,23.9,01.3,00.8,0673.7,30.9
2021-05-07T06:51:00Z,00000200,01000000,0000.51,0000.31,0000.31,0000.26,0000.04,0000.13,0000.69,0000.82,0000.46,17.3,23.9,01.3,00.9,0673.7,30.9
2021-05-07T06:52:00Z,00000200,01000000,0000.09,0000.11,-000.09,0000.49,0000.10,-000.14,0000.76,0000.71,0000.04,17.2,23.9,01.3,00.9,0673.7,30.9
2021-05-07T06:53:00Z,00000200,01000000,0001.29,0000.78,0000.30,0000.06,0000.20,0000.11,0007.18,0006.75,0005.76,17.2,23.8,01.2,00.8,0673.7,30.9
2021-05-07T06:54:00Z,00000200,01000000,0000.60,0000.64,0000.53,0000.29,0000.17,-000.08,0006.00,0005.24,0004.41,17.2,23.8,01.3,00.9,0673.7,30.9
2021-05-07T06:55:00Z,00000200,01000000,-000.47,0000.41,0000.15,-000.07,0000.04,0000.25,0000.82,0000.91,0000.13,17.2,23.8,01.3,00.9,0673.6,30.9
2021-05-07T06:56:00Z,00000200,01000000,0000.71,0000.43,0000.40,0000.06,0000.22,0000.11,0000.48,0000.49,0000.73,17.3,23.8,01.3,00.9,0673.7,30.9
2021-05-07T06:57:00Z,00000200,41000000,,,,,,,0001.70,0001.22,0001.18,17.4,23.9,01.5,01.0,0673.7,31.0
2021-05-07T06:58:00Z,00000200,61000000,,,,,,,0000.27,0000.62,0000.33,17.1,24.1,01.2,00.8,0672.7,31.0
2021-05-07T06:59:00Z,00000200,21000000,,,,,,,0000.47,0000.10,0000.23,17.1,24.2,01.2,00.8,0672.7,31.0
